Year,Month,Day,Hour,Minute,Value (Times are PST for temperature in C)
2007,03,06,00,00,7.80
2007,03,06,00,01,7.80
2007,03,06,00,02,7.80
2007,03,06,00,03,7.80
2007,03,06,00,04,7.80
2007,03,06,00,05,7.80
2007,03,06,00,06,7.80
2007,03,06,00,07,7.80
2007,03,06,00,08,7.80
2007,03,06,00,09,7.70
2007,03,06,00,10,7.60
2007,03,06,00,11,7.60
2007,03,06,00,12,7.50
2007,03,06,00,13,7.40
2007,03,06,00,14,7.30
2007,03,06,00,15,7.20
2007,03,06,00,16,7.10
2007,03,06,00,17,7.10
2007,03,06,00,18,7.10
2007,03,06,00,19,7.10
2007,03,06,00,20,7.10
2007,03,06,00,21,7.00
2007,03,06,00,22,7.00
2007,03,06,00,23,6.90
2007,03,06,00,24,6.80
2007,03,06,00,25,6.80
2007,03,06,00,26,6.80
2007,03,06,00,27,6.80
2007,03,06,00,28,6.90
2007,03,06,00,29,7.00
2007,03,06,00,30,7.10
2007,03,06,00,31,7.10
2007,03,06,00,32,7.20
2007,03,06,00,33,7.30
2007,03,06,00,34,7.30
2007,03,06,00,35,7.30
2007,03,06,00,36,7.30
2007,03,06,00,37,7.30
2007,03,06,00,38,7.30
2007,03,06,00,39,7.30
2007,03,06,00,40,7.30
2007,03,06,00,41,7.30
2007,03,06,00,42,7.30
2007,03,06,00,43,7.30
2007,03,06,00,44,7.30
2007,03,06,00,45,7.30
2007,03,06,00,46,7.30
2007,03,06,00,47,7.30
2007,03,06,00,48,7.30
2007,03,06,00,49,7.30
2007,03,06,00,50,7.30
2007,03,06,00,51,7.30
2007,03,06,00,52,7.20
2007,03,06,00,53,7.20
2007,03,06,00,54,7.00
2007,03,06,00,55,6.90
2007,03,06,00,56,6.80
2007,03,06,00,57,6.70
2007,03,06,00,58,6.70
2007,03,06,00,59,6.70
2007,03,06,01,00,6.70
2007,03,06,01,01,6.80
2007,03,06,01,02,6.80
2007,03,06,01,03,6.70
2007,03,06,01,04,6.70
2007,03,06,01,05,6.60
2007,03,06,01,06,6.50
2007,03,06,01,07,6.40
2007,03,06,01,08,6.40
2007,03,06,01,09,6.40
2007,03,06,01,10,6.50
2007,03,06,01,11,6.60
2007,03,06,01,12,6.70
2007,03,06,01,13,6.80
2007,03,06,01,14,6.90
2007,03,06,01,15,7.00
2007,03,06,01,16,7.10
2007,03,06,01,17,7.10
2007,03,06,01,18,7.10
2007,03,06,01,19,7.10
2007,03,06,01,20,7.10
2007,03,06,01,21,7.10
2007,03,06,01,22,7.10
2007,03,06,01,23,7.10
2007,03,06,01,24,7.10
2007,03,06,01,25,7.00
2007,03,06,01,26,7.00
2007,03,06,01,27,7.00
2007,03,06,01,28,7.00
2007,03,06,01,29,7.00
2007,03,06,01,30,6.90
2007,03,06,01,31,6.80
2007,03,06,01,32,6.70
2007,03,06,01,33,6.70
2007,03,06,01,34,6.70
2007,03,06,01,35,6.70
2007,03,06,01,36,6.70
2007,03,06,01,37,6.80
2007,03,06,01,38,6.80
2007,03,06,01,39,6.80
2007,03,06,01,40,6.80
2007,03,06,01,41,6.80
2007,03,06,01,42,6.80
2007,03,06,01,43,6.80
2007,03,06,01,44,6.90
2007,03,06,01,45,7.00
2007,03,06,01,46,7.00
2007,03,06,01,47,7.00
2007,03,06,01,48,7.00
2007,03,06,01,49,7.00
2007,03,06,01,50,6.90
2007,03,06,01,51,6.90
2007,03,06,01,52,6.90
2007,03,06,01,53,6.90
2007,03,06,01,54,6.90
2007,03,06,01,55,6.90
2007,03,06,01,56,6.90
2007,03,06,01,57,6.90
2007,03,06,01,58,6.90
2007,03,06,01,59,6.90
2007,03,06,02,00,6.90
2007,03,06,02,01,6.90
2007,03,06,02,02,6.90
2007,03,06,02,03,6.90
2007,03,06,02,04,6.80
2007,03,06,02,05,6.80
2007,03,06,02,06,6.80
2007,03,06,02,07,6.80
2007,03,06,02,08,6.80
2007,03,06,02,09,6.90
2007,03,06,02,10,7.00
2007,03,06,02,11,7.00
2007,03,06,02,12,7.00
2007,03,06,02,13,7.00
2007,03,06,02,14,6.90
2007,03,06,02,15,6.90
2007,03,06,02,16,6.90
2007,03,06,02,17,6.80
2007,03,06,02,18,6.80
2007,03,06,02,19,6.80
2007,03,06,02,20,6.70
2007,03,06,02,21,6.80
2007,03,06,02,22,6.80
2007,03,06,02,23,6.80
2007,03,06,02,24,6.80
2007,03,06,02,25,6.90
2007,03,06,02,26,7.00
2007,03,06,02,27,7.00
2007,03,06,02,28,7.00
2007,03,06,02,29,7.10
2007,03,06,02,30,7.10
2007,03,06,02,31,7.10
2007,03,06,02,32,7.10
2007,03,06,02,33,7.10
2007,03,06,02,34,7.10
2007,03,06,02,35,7.10
2007,03,06,02,36,7.10
2007,03,06,02,37,7.20
2007,03,06,02,38,7.20
2007,03,06,02,39,7.20
2007,03,06,02,40,7.20
2007,03,06,02,41,7.20
2007,03,06,02,42,7.20
2007,03,06,02,43,7.10
2007,03,06,02,44,7.10
2007,03,06,02,45,7.10
2007,03,06,02,46,7.10
2007,03,06,02,47,7.10
2007,03,06,02,48,7.10
2007,03,06,02,49,7.20
2007,03,06,02,50,7.20
2007,03,06,02,51,7.20
2007,03,06,02,52,7.20
2007,03,06,02,53,7.20
2007,03,06,02,54,7.20
2007,03,06,02,55,7.30
2007,03,06,02,56,7.30
2007,03,06,02,57,7.30
2007,03,06,02,58,7.30
2007,03,06,02,59,7.30
2007,03,06,03,00,7.30
2007,03,06,03,01,7.30
2007,03,06,03,02,7.30
2007,03,06,03,03,7.30
2007,03,06,03,04,7.30
2007,03,06,03,05,7.30
2007,03,06,03,06,7.30
2007,03,06,03,07,7.30
2007,03,06,03,08,7.30
2007,03,06,03,09,7.30
2007,03,06,03,10,7.30
2007,03,06,03,11,7.30
2007,03,06,03,12,7.30
2007,03,06,03,13,7.30
2007,03,06,03,14,7.30
2007,03,06,03,15,7.30
2007,03,06,03,16,7.30
2007,03,06,03,17,7.30
2007,03,06,03,18,7.30
2007,03,06,03,19,7.30
2007,03,06,03,20,7.30
2007,03,06,03,21,7.30
2007,03,06,03,22,7.30
2007,03,06,03,23,7.30
2007,03,06,03,24,7.30
2007,03,06,03,25,7.30
2007,03,06,03,26,7.30
2007,03,06,03,27,7.30
2007,03,06,03,28,7.30
2007,03,06,03,29,7.30
2007,03,06,03,30,7.30
2007,03,06,03,31,7.30
2007,03,06,03,32,7.30
2007,03,06,03,33,7.30
2007,03,06,03,34,7.30
2007,03,06,03,35,7.30
2007,03,06,03,36,7.30
2007,03,06,03,37,7.30
2007,03,06,03,38,7.30
2007,03,06,03,39,7.30
2007,03,06,03,40,7.30
2007,03,06,03,41,7.30
2007,03,06,03,42,7.30
2007,03,06,03,43,7.30
2007,03,06,03,44,7.30
2007,03,06,03,45,7.30
2007,03,06,03,46,7.30
2007,03,06,03,47,7.30
2007,03,06,03,48,7.30
2007,03,06,03,49,7.30
2007,03,06,03,50,7.40
2007,03,06,03,51,7.40
2007,03,06,03,52,7.40
2007,03,06,03,53,7.40
2007,03,06,03,54,7.40
2007,03,06,03,55,7.40
2007,03,06,03,56,7.40
2007,03,06,03,57,7.30
2007,03,06,03,58,7.30
2007,03,06,03,59,7.30
2007,03,06,04,00,7.40
2007,03,06,04,01,7.40
2007,03,06,04,02,7.40
2007,03,06,04,03,7.40
2007,03,06,04,04,7.40
2007,03,06,04,05,7.40
2007,03,06,04,06,7.40
2007,03,06,04,07,7.40
2007,03,06,04,08,7.40
2007,03,06,04,09,7.50
2007,03,06,04,10,7.50
2007,03,06,04,11,7.50
2007,03,06,04,12,7.50
2007,03,06,04,13,7.50
2007,03,06,04,14,7.50
2007,03,06,04,15,7.50
2007,03,06,04,16,7.50
2007,03,06,04,17,7.50
2007,03,06,04,18,7.50
2007,03,06,04,19,7.50
2007,03,06,04,20,7.50
2007,03,06,04,21,7.50
2007,03,06,04,22,7.50
2007,03,06,04,23,7.50
2007,03,06,04,24,7.60
2007,03,06,04,25,7.60
2007,03,06,04,26,7.60
2007,03,06,04,27,7.60
2007,03,06,04,28,7.60
2007,03,06,04,29,7.60
2007,03,06,04,30,7.60
2007,03,06,04,31,7.60
2007,03,06,04,32,7.60
2007,03,06,04,33,7.60
2007,03,06,04,34,7.60
2007,03,06,04,35,7.60
2007,03,06,04,36,7.60
2007,03,06,04,37,7.60
2007,03,06,04,38,7.60
2007,03,06,04,39,7.60
2007,03,06,04,40,7.60
2007,03,06,04,41,7.60
2007,03,06,04,42,7.60
2007,03,06,04,43,7.60
2007,03,06,04,44,7.60
2007,03,06,04,45,7.60
2007,03,06,04,46,7.60
2007,03,06,04,47,7.50
2007,03,06,04,48,7.50
2007,03,06,04,49,7.50
2007,03,06,04,50,7.50
2007,03,06,04,51,7.50
2007,03,06,04,52,7.50
2007,03,06,04,53,7.50
2007,03,06,04,54,7.50
2007,03,06,04,55,7.50
2007,03,06,04,56,7.50
2007,03,06,04,57,7.50
2007,03,06,04,58,7.40
2007,03,06,04,59,7.40
2007,03,06,05,00,7.40
2007,03,06,05,01,7.40
2007,03,06,05,02,7.30
2007,03,06,05,03,7.30
2007,03,06,05,04,7.30
2007,03,06,05,05,7.30
2007,03,06,05,06,7.30
2007,03,06,05,07,7.30
2007,03,06,05,08,7.20
2007,03,06,05,09,7.20
2007,03,06,05,10,7.20
2007,03,06,05,11,7.10
2007,03,06,05,12,7.10
2007,03,06,05,13,7.10
2007,03,06,05,14,7.10
2007,03,06,05,15,7.00
2007,03,06,05,16,7.00
2007,03,06,05,17,7.00
2007,03,06,05,18,7.00
2007,03,06,05,19,7.00
2007,03,06,05,20,7.00
2007,03,06,05,21,7.00
2007,03,06,05,22,7.00
2007,03,06,05,23,7.00
2007,03,06,05,24,7.00
2007,03,06,05,25,7.00
2007,03,06,05,26,6.90
2007,03,06,05,27,6.90
2007,03,06,05,28,6.90
2007,03,06,05,29,6.90
2007,03,06,05,30,6.90
2007,03,06,05,31,6.90
2007,03,06,05,32,6.90
2007,03,06,05,33,6.90
2007,03,06,05,34,6.80
2007,03,06,05,35,6.80
2007,03,06,05,36,6.80
2007,03,06,05,37,6.80
2007,03,06,05,38,6.80
2007,03,06,05,39,6.80
2007,03,06,05,40,6.80
2007,03,06,05,41,6.90
2007,03,06,05,42,6.90
2007,03,06,05,43,6.90
2007,03,06,05,44,6.90
2007,03,06,05,45,6.90
2007,03,06,05,46,6.80
2007,03,06,05,47,6.80
2007,03,06,05,48,6.80
2007,03,06,05,49,6.80
2007,03,06,05,50,6.80
2007,03,06,05,51,6.80
2007,03,06,05,52,6.80
2007,03,06,05,53,6.80
2007,03,06,05,54,6.80
2007,03,06,05,55,6.80
2007,03,06,05,56,6.80
2007,03,06,05,57,6.80
2007,03,06,05,58,6.80
2007,03,06,05,59,6.80
2007,03,06,06,00,6.80
2007,03,06,06,01,6.80
2007,03,06,06,02,6.80
2007,03,06,06,03,6.80
2007,03,06,06,04,6.80
2007,03,06,06,05,6.80
2007,03,06,06,06,6.80
2007,03,06,06,07,6.80
2007,03,06,06,08,6.80
2007,03,06,06,09,6.80
2007,03,06,06,10,6.70
2007,03,06,06,11,6.70
2007,03,06,06,12,6.70
2007,03,06,06,13,6.70
2007,03,06,06,14,6.70
2007,03,06,06,15,6.70
2007,03,06,06,16,6.60
2007,03,06,06,17,6.60
2007,03,06,06,18,6.60
2007,03,06,06,19,6.60
2007,03,06,06,20,6.40
2007,03,06,06,21,6.40
2007,03,06,06,22,6.30
2007,03,06,06,23,6.30
2007,03,06,06,24,6.30
2007,03,06,06,25,6.20
2007,03,06,06,26,6.20
2007,03,06,06,27,6.20
2007,03,06,06,28,6.20
2007,03,06,06,29,6.20
2007,03,06,06,30,6.20
2007,03,06,06,31,6.20
2007,03,06,06,32,6.10
2007,03,06,06,33,6.00
2007,03,06,06,34,6.00
2007,03,06,06,35,6.00
2007,03,06,06,36,6.00
2007,03,06,06,37,6.00
2007,03,06,06,38,6.00
2007,03,06,06,39,6.10
2007,03,06,06,40,6.20
2007,03,06,06,41,6.20
2007,03,06,06,42,6.20
2007,03,06,06,43,6.30
2007,03,06,06,44,6.30
2007,03,06,06,45,6.40
2007,03,06,06,46,6.40
2007,03,06,06,47,6.40
2007,03,06,06,48,6.40
2007,03,06,06,49,6.40
2007,03,06,06,50,6.40
2007,03,06,06,51,6.40
2007,03,06,06,52,6.40
2007,03,06,06,53,6.40
2007,03,06,06,54,6.30
2007,03,06,06,55,6.20
2007,03,06,06,56,6.10
2007,03,06,06,57,6.00
2007,03,06,06,58,6.00
2007,03,06,06,59,6.00
2007,03,06,07,00,6.00
2007,03,06,07,01,6.00
2007,03,06,07,02,6.10
2007,03,06,07,03,6.10
2007,03,06,07,04,6.10
2007,03,06,07,05,6.20
2007,03,06,07,06,6.20
2007,03,06,07,07,6.20
2007,03,06,07,08,6.20
2007,03,06,07,09,6.30
2007,03,06,07,10,6.30
2007,03,06,07,11,6.30
2007,03,06,07,12,6.30
2007,03,06,07,13,6.40
2007,03,06,07,14,6.40
2007,03,06,07,15,6.40
2007,03,06,07,16,6.40
2007,03,06,07,17,6.50
2007,03,06,07,18,6.60
2007,03,06,07,19,6.60
2007,03,06,07,20,6.60
2007,03,06,07,21,6.60
2007,03,06,07,22,6.60
2007,03,06,07,23,6.60
2007,03,06,07,24,6.60
2007,03,06,07,25,6.60
2007,03,06,07,26,6.60
2007,03,06,07,27,6.60
2007,03,06,07,28,6.60
2007,03,06,07,29,6.50
2007,03,06,07,30,6.40
2007,03,06,07,31,6.40
2007,03,06,07,32,6.40
2007,03,06,07,33,6.40
2007,03,06,07,34,6.40
2007,03,06,07,35,6.40
2007,03,06,07,36,6.40
2007,03,06,07,37,6.40
2007,03,06,07,38,6.50
2007,03,06,07,39,6.60
2007,03,06,07,40,6.60
2007,03,06,07,41,6.60
2007,03,06,07,42,6.60
2007,03,06,07,43,6.70
2007,03,06,07,44,6.70
2007,03,06,07,45,6.80
2007,03,06,07,46,6.80
2007,03,06,07,47,6.80
2007,03,06,07,48,6.90
2007,03,06,07,49,6.90
2007,03,06,07,50,7.00
2007,03,06,07,51,7.10
2007,03,06,07,52,7.20
2007,03,06,07,53,7.20
2007,03,06,07,54,7.30
2007,03,06,07,55,7.30
2007,03,06,07,56,7.30
2007,03,06,07,57,7.40
2007,03,06,07,58,7.50
2007,03,06,07,59,7.60
2007,03,06,08,00,7.60
2007,03,06,08,01,7.70
2007,03,06,08,02,7.70
2007,03,06,08,03,7.70
2007,03,06,08,04,7.80
2007,03,06,08,05,7.80
2007,03,06,08,06,7.80
2007,03,06,08,07,7.80
2007,03,06,08,08,7.80
2007,03,06,08,09,7.80
2007,03,06,08,10,7.90
2007,03,06,08,11,7.90
2007,03,06,08,12,8.00
2007,03,06,08,13,8.00
2007,03,06,08,14,8.10
2007,03,06,08,15,8.20
2007,03,06,08,16,8.20
2007,03,06,08,17,8.20
2007,03,06,08,18,8.20
2007,03,06,08,19,8.20
2007,03,06,08,20,8.30
2007,03,06,08,21,8.30
2007,03,06,08,22,8.40
2007,03,06,08,23,8.50
2007,03,06,08,24,8.70
2007,03,06,08,25,8.70
2007,03,06,08,26,8.80
2007,03,06,08,27,8.90
2007,03,06,08,28,8.90
2007,03,06,08,29,9.00
2007,03,06,08,30,9.00
2007,03,06,08,31,9.20
2007,03,06,08,32,9.20
2007,03,06,08,33,9.20
2007,03,06,08,34,9.20
2007,03,06,08,35,9.20
2007,03,06,08,36,9.20
2007,03,06,08,37,9.20
2007,03,06,08,38,9.30
2007,03,06,08,39,9.30
2007,03,06,08,40,9.30
2007,03,06,08,41,9.30
2007,03,06,08,42,9.30
2007,03,06,08,43,9.30
2007,03,06,08,44,9.20
2007,03,06,08,45,9.30
2007,03,06,08,46,9.30
2007,03,06,08,47,9.30
2007,03,06,08,48,9.40
2007,03,06,08,49,9.40
2007,03,06,08,50,9.40
2007,03,06,08,51,9.40
2007,03,06,08,52,9.40
2007,03,06,08,53,9.40
2007,03,06,08,54,9.40
2007,03,06,08,55,9.40
2007,03,06,08,56,9.40
2007,03,06,08,57,9.40
2007,03,06,08,58,9.40
2007,03,06,08,59,9.40
2007,03,06,09,00,9.40
2007,03,06,09,01,9.40
2007,03,06,09,02,9.40
2007,03,06,09,03,9.30
2007,03,06,09,04,9.30
2007,03,06,09,05,9.40
2007,03,06,09,06,9.40
2007,03,06,09,07,9.40
2007,03,06,09,08,9.40
2007,03,06,09,09,9.40
2007,03,06,09,10,9.50
2007,03,06,09,11,9.50
2007,03,06,09,12,9.50
2007,03,06,09,13,9.50
2007,03,06,09,14,9.50
2007,03,06,09,15,9.50
2007,03,06,09,16,9.50
2007,03,06,09,17,9.50
2007,03,06,09,18,9.50
2007,03,06,09,19,9.50
2007,03,06,09,20,9.50
2007,03,06,09,21,9.50
2007,03,06,09,22,9.50
2007,03,06,09,23,9.50
2007,03,06,09,24,9.60
2007,03,06,09,25,9.60
2007,03,06,09,26,9.60
2007,03,06,09,27,9.60
2007,03,06,09,28,9.70
2007,03,06,09,29,9.70
2007,03,06,09,30,9.70
2007,03,06,09,31,9.70
2007,03,06,09,32,9.70
2007,03,06,09,33,9.70
2007,03,06,09,34,9.70
2007,03,06,09,35,9.70
2007,03,06,09,36,9.70
2007,03,06,09,37,9.70
2007,03,06,09,38,9.80
2007,03,06,09,39,9.80
2007,03,06,09,40,9.80
2007,03,06,09,41,9.80
2007,03,06,09,42,9.80
2007,03,06,09,43,9.80
2007,03,06,09,44,9.90
2007,03,06,09,45,9.90
2007,03,06,09,46,9.90
2007,03,06,09,47,10.00
2007,03,06,09,48,10.10
2007,03,06,09,49,10.10
2007,03,06,09,50,10.10
2007,03,06,09,51,10.20
2007,03,06,09,52,10.20
2007,03,06,09,53,10.30
2007,03,06,09,54,10.30
2007,03,06,09,55,10.40
2007,03,06,09,56,10.50
2007,03,06,09,57,10.60
2007,03,06,09,58,10.70
2007,03,06,09,59,10.80
2007,03,06,10,00,10.90
2007,03,06,10,01,10.90
2007,03,06,10,02,10.90
2007,03,06,10,03,10.90
2007,03,06,10,04,10.90
2007,03,06,10,05,10.90
2007,03,06,10,06,11.00
2007,03,06,10,07,11.10
2007,03,06,10,08,11.10
2007,03,06,10,09,11.10
2007,03,06,10,10,11.10
2007,03,06,10,11,11.10
2007,03,06,10,12,11.10
2007,03,06,10,13,11.10
2007,03,06,10,14,11.10
2007,03,06,10,15,11.10
2007,03,06,10,16,11.10
2007,03,06,10,17,11.10
2007,03,06,10,18,11.20
2007,03,06,10,19,11.20
2007,03,06,10,20,11.10
2007,03,06,10,21,11.10
2007,03,06,10,22,11.10
2007,03,06,10,23,11.10
2007,03,06,10,24,11.10
2007,03,06,10,25,11.10
2007,03,06,10,26,11.10
2007,03,06,10,27,11.10
2007,03,06,10,28,11.00
2007,03,06,10,29,10.90
2007,03,06,10,30,11.00
2007,03,06,10,31,11.10
2007,03,06,10,32,11.10
2007,03,06,10,33,11.10
2007,03,06,10,34,11.00
2007,03,06,10,35,10.90
2007,03,06,10,36,10.90
2007,03,06,10,37,10.90
2007,03,06,10,38,10.90
2007,03,06,10,39,10.90
2007,03,06,10,40,10.90
2007,03,06,10,41,10.90
2007,03,06,10,42,10.90
2007,03,06,10,43,10.80
2007,03,06,10,44,10.80
2007,03,06,10,45,10.70
2007,03,06,10,46,10.70
2007,03,06,10,47,10.60
2007,03,06,10,48,10.60
2007,03,06,10,49,10.50
2007,03,06,10,50,10.40
2007,03,06,10,51,10.40
2007,03,06,10,52,10.40
2007,03,06,10,53,10.40
2007,03,06,10,54,10.40
2007,03,06,10,55,10.40
2007,03,06,10,56,10.40
2007,03,06,10,57,10.40
2007,03,06,10,58,10.40
2007,03,06,10,59,10.40
2007,03,06,11,00,10.50
2007,03,06,11,01,10.60
2007,03,06,11,02,10.60
2007,03,06,11,03,10.70
2007,03,06,11,04,10.80
2007,03,06,11,05,10.80
2007,03,06,11,06,10.90
2007,03,06,11,07,10.90
2007,03,06,11,08,10.90
2007,03,06,11,09,10.90
2007,03,06,11,10,10.90
2007,03,06,11,11,10.90
2007,03,06,11,12,10.90
2007,03,06,11,13,10.90
2007,03,06,11,14,10.90
2007,03,06,11,15,10.90
2007,03,06,11,16,10.90
2007,03,06,11,17,11.00
2007,03,06,11,18,11.10
2007,03,06,11,19,11.10
2007,03,06,11,20,11.10
2007,03,06,11,21,11.10
2007,03,06,11,22,11.10
2007,03,06,11,23,11.20
2007,03,06,11,24,11.20
2007,03,06,11,25,11.30
2007,03,06,11,26,11.30
2007,03,06,11,27,11.40
2007,03,06,11,28,11.40
2007,03,06,11,29,11.40
2007,03,06,11,30,11.40
2007,03,06,11,31,11.50
2007,03,06,11,32,11.60
2007,03,06,11,33,11.60
2007,03,06,11,34,11.60
2007,03,06,11,35,11.60
2007,03,06,11,36,11.60
2007,03,06,11,37,11.60
2007,03,06,11,38,11.70
2007,03,06,11,39,11.80
2007,03,06,11,40,11.80
2007,03,06,11,41,11.80
2007,03,06,11,42,11.80
2007,03,06,11,43,11.90
2007,03,06,11,44,11.90
2007,03,06,11,45,12.00
2007,03,06,11,46,12.00
2007,03,06,11,47,12.10
2007,03,06,11,48,12.00
2007,03,06,11,49,12.00
2007,03,06,11,50,12.00
2007,03,06,11,51,12.00
2007,03,06,11,52,12.00
2007,03,06,11,53,12.00
2007,03,06,11,54,12.00
2007,03,06,11,55,12.10
2007,03,06,11,56,12.10
2007,03,06,11,57,12.10
2007,03,06,11,58,12.10
2007,03,06,11,59,12.20
2007,03,06,12,00,12.20
2007,03,06,12,01,12.30
2007,03,06,12,02,12.30
2007,03,06,12,03,12.30
2007,03,06,12,04,12.40
2007,03,06,12,05,12.40
2007,03,06,12,06,12.40
2007,03,06,12,07,12.30
2007,03,06,12,08,12.30
2007,03,06,12,09,12.30
2007,03,06,12,10,12.30
2007,03,06,12,11,12.30
2007,03,06,12,12,12.30
2007,03,06,12,13,12.20
2007,03,06,12,14,12.20
2007,03,06,12,15,12.10
2007,03,06,12,16,12.10
2007,03,06,12,17,12.10
2007,03,06,12,18,12.10
2007,03,06,12,19,12.20
2007,03,06,12,20,12.20
2007,03,06,12,21,12.20
2007,03,06,12,22,12.20
2007,03,06,12,23,12.30
2007,03,06,12,24,12.30
2007,03,06,12,25,12.30
2007,03,06,12,26,12.30
2007,03,06,12,27,12.30
2007,03,06,12,28,12.30
2007,03,06,12,29,12.40
2007,03,06,12,30,12.40
2007,03,06,12,31,12.40
2007,03,06,12,32,12.40
2007,03,06,12,33,12.30
2007,03,06,12,34,12.30
2007,03,06,12,35,12.30
2007,03,06,12,36,12.20
2007,03,06,12,37,12.20
2007,03,06,12,38,12.10
2007,03,06,12,39,12.10
2007,03,06,12,40,12.00
2007,03,06,12,41,11.90
2007,03,06,12,42,11.90
2007,03,06,12,43,11.80
2007,03,06,12,44,11.80
2007,03,06,12,45,11.80
2007,03,06,12,46,11.80
2007,03,06,12,47,11.90
2007,03,06,12,48,11.90
2007,03,06,12,49,11.90
2007,03,06,12,50,11.90
2007,03,06,12,51,11.90
2007,03,06,12,52,11.90
2007,03,06,12,53,11.90
2007,03,06,12,54,11.90
2007,03,06,12,55,11.90
2007,03,06,12,56,12.00
2007,03,06,12,57,12.00
2007,03,06,12,58,12.00
2007,03,06,12,59,11.90
2007,03,06,13,00,11.90
2007,03,06,13,01,11.90
2007,03,06,13,02,11.90
2007,03,06,13,03,11.90
2007,03,06,13,04,11.90
2007,03,06,13,05,11.90
2007,03,06,13,06,11.90
2007,03,06,13,07,11.90
2007,03,06,13,08,11.90
2007,03,06,13,09,11.90
2007,03,06,13,10,11.90
2007,03,06,13,11,12.00
2007,03,06,13,12,12.00
2007,03,06,13,13,12.00
2007,03,06,13,14,12.00
2007,03,06,13,15,12.00
2007,03,06,13,16,12.00
2007,03,06,13,17,12.00
2007,03,06,13,18,12.00
2007,03,06,13,19,12.00
2007,03,06,13,20,12.00
2007,03,06,13,21,12.00
2007,03,06,13,22,12.00
2007,03,06,13,23,12.00
2007,03,06,13,24,12.00
2007,03,06,13,25,12.00
2007,03,06,13,26,12.00
2007,03,06,13,27,12.10
2007,03,06,13,28,12.10
2007,03,06,13,29,12.10
2007,03,06,13,30,12.20
2007,03,06,13,31,12.20
2007,03,06,13,32,12.20
2007,03,06,16,07,12.30
2007,03,06,16,08,12.30
2007,03,06,16,09,12.30
2007,03,06,16,10,12.30
2007,03,06,16,11,12.30
2007,03,06,16,12,12.30
2007,03,06,16,13,12.30
2007,03,06,16,14,12.30
2007,03,06,16,15,12.30
2007,03,06,16,16,12.30
2007,03,06,16,17,12.30
2007,03,06,16,18,12.20
2007,03,06,16,19,12.20
2007,03,06,16,20,12.20
2007,03,06,16,21,12.20
2007,03,06,16,22,12.20
2007,03,06,16,23,12.20
2007,03,06,16,24,12.20
2007,03,06,16,25,12.20
2007,03,06,16,26,12.20
2007,03,06,16,27,12.10
2007,03,06,16,28,12.10
2007,03,06,16,29,12.10
2007,03,06,16,30,12.10
2007,03,06,16,31,12.10
2007,03,06,16,32,12.10
2007,03,06,16,33,12.20
2007,03,06,16,34,12.20
2007,03,06,16,35,12.20
2007,03,06,16,36,12.20
2007,03,06,16,37,12.20
2007,03,06,16,38,12.20
2007,03,06,16,39,12.20
2007,03,06,16,40,12.20
2007,03,06,16,41,12.20
2007,03,06,16,42,12.20
2007,03,06,16,43,12.20
2007,03,06,16,44,12.20
2007,03,06,16,45,12.20
2007,03,06,16,46,12.20
2007,03,06,16,47,12.20
2007,03,06,16,48,12.10
2007,03,06,16,49,12.10
2007,03,06,16,50,12.10
2007,03,06,16,51,12.10
2007,03,06,16,52,12.10
2007,03,06,16,53,12.10
2007,03,06,16,54,12.10
2007,03,06,16,55,12.00
2007,03,06,16,56,12.00
2007,03,06,16,57,12.00
2007,03,06,16,58,12.00
2007,03,06,16,59,12.00
2007,03,06,17,00,12.00
2007,03,06,17,01,12.00
2007,03,06,17,02,12.00
2007,03,06,17,03,12.00
2007,03,06,17,04,12.00
2007,03,06,17,05,12.00
2007,03,06,17,06,12.00
2007,03,06,17,07,12.00
2007,03,06,17,08,12.00
2007,03,06,17,09,12.00
2007,03,06,17,10,12.00
2007,03,06,17,11,11.90
2007,03,06,17,12,11.90
2007,03,06,17,13,11.90
2007,03,06,17,14,11.90
2007,03,06,17,15,11.90
2007,03,06,17,16,11.90
2007,03,06,17,17,11.80
2007,03,06,17,18,11.80
2007,03,06,17,19,11.80
2007,03,06,17,20,11.80
2007,03,06,17,21,11.80
2007,03,06,17,22,11.80
2007,03,06,17,23,11.80
2007,03,06,17,24,11.80
2007,03,06,17,25,11.80
2007,03,06,17,26,11.80
2007,03,06,17,27,11.80
2007,03,06,17,28,11.80
2007,03,06,17,29,11.80
2007,03,06,17,30,11.80
2007,03,06,17,31,11.80
2007,03,06,17,32,11.80
2007,03,06,17,33,11.80
2007,03,06,17,34,11.80
2007,03,06,17,35,11.80
2007,03,06,17,36,11.70
2007,03,06,17,37,11.70
2007,03,06,17,38,11.70
2007,03,06,17,39,11.70
2007,03,06,17,40,11.70
2007,03,06,17,41,11.70
2007,03,06,17,42,11.70
2007,03,06,17,43,11.70
2007,03,06,17,44,11.60
2007,03,06,17,45,11.60
2007,03,06,17,46,11.60
2007,03,06,17,47,11.60
2007,03,06,17,48,11.60
2007,03,06,17,49,11.60
2007,03,06,17,50,11.60
2007,03,06,17,51,11.40
2007,03,06,17,52,11.40
2007,03,06,17,53,11.40
2007,03,06,17,54,11.40
2007,03,06,17,55,11.30
2007,03,06,17,56,11.30
2007,03,06,17,57,11.30
2007,03,06,17,58,11.20
2007,03,06,17,59,11.20
2007,03,06,18,00,11.10
2007,03,06,18,01,11.10
2007,03,06,18,02,11.00
2007,03,06,18,03,10.90
2007,03,06,18,04,10.90
2007,03,06,18,05,10.90
2007,03,06,18,06,10.90
2007,03,06,18,07,10.80
2007,03,06,18,08,10.80
2007,03,06,18,09,10.70
2007,03,06,18,10,10.70
2007,03,06,18,11,10.70
2007,03,06,18,12,10.70
2007,03,06,18,13,10.70
2007,03,06,18,14,10.70
2007,03,06,18,15,10.70
2007,03,06,18,16,10.70
2007,03,06,18,17,10.70
2007,03,06,18,18,10.70
2007,03,06,18,19,10.70
2007,03,06,18,20,10.70
2007,03,06,18,21,10.80
2007,03,06,18,22,10.80
2007,03,06,18,23,10.80
2007,03,06,18,24,10.80
2007,03,06,18,25,10.80
2007,03,06,18,26,10.80
2007,03,06,18,27,10.80
2007,03,06,18,28,10.80
2007,03,06,18,29,10.80
2007,03,06,18,30,10.70
2007,03,06,18,31,10.70
2007,03,06,18,32,10.70
2007,03,06,18,33,10.70
2007,03,06,18,34,10.70
2007,03,06,18,35,10.70
2007,03,06,18,36,10.70
2007,03,06,18,37,10.80
2007,03,06,18,38,10.80
2007,03,06,18,39,10.80
2007,03,06,18,40,10.80
2007,03,06,18,41,10.90
2007,03,06,18,42,10.90
2007,03,06,18,43,10.90
2007,03,06,18,44,10.90
2007,03,06,18,45,10.90
2007,03,06,18,46,10.90
2007,03,06,18,47,11.00
2007,03,06,18,48,11.10
2007,03,06,18,49,11.10
2007,03,06,18,50,11.10
2007,03,06,18,51,11.10
2007,03,06,18,52,11.10
2007,03,06,18,53,11.10
2007,03,06,18,54,11.10
2007,03,06,18,55,11.10
2007,03,06,18,56,11.10
2007,03,06,18,57,11.10
2007,03,06,18,58,11.20
2007,03,06,18,59,11.20
2007,03,06,19,00,11.20
2007,03,06,19,01,11.20
2007,03,06,19,02,11.20
2007,03,06,19,03,11.30
2007,03,06,19,04,11.30
2007,03,06,19,05,11.30
2007,03,06,19,06,11.40
2007,03,06,19,07,11.40
2007,03,06,19,08,11.40
2007,03,06,19,09,11.40
2007,03,06,19,10,11.40
2007,03,06,19,11,11.40
2007,03,06,19,12,11.40
2007,03,06,19,13,11.40
2007,03,06,19,14,11.40
2007,03,06,19,15,11.40
2007,03,06,19,16,11.30
2007,03,06,19,17,11.30
2007,03,06,19,18,11.30
2007,03,06,19,19,11.30
2007,03,06,19,20,11.30
2007,03,06,19,21,11.30
2007,03,06,19,22,11.30
2007,03,06,19,23,11.20
2007,03,06,19,24,11.20
2007,03,06,19,25,11.20
2007,03,06,19,26,11.10
2007,03,06,19,27,11.10
2007,03,06,19,28,11.00
2007,03,06,19,29,10.90
2007,03,06,19,30,10.90
2007,03,06,19,31,10.90
2007,03,06,19,32,10.80
2007,03,06,19,33,10.80
2007,03,06,19,34,10.80
2007,03,06,19,35,10.80
2007,03,06,19,36,10.80
2007,03,06,19,37,10.80
2007,03,06,19,38,10.90
2007,03,06,19,39,10.90
2007,03,06,19,40,11.00
2007,03,06,19,41,11.10
2007,03,06,19,42,11.10
2007,03,06,19,43,11.10
2007,03,06,19,44,11.10
2007,03,06,19,45,11.10
2007,03,06,19,46,11.20
2007,03,06,19,47,11.20
2007,03,06,19,48,11.30
2007,03,06,19,49,11.30
2007,03,06,19,50,11.40
2007,03,06,19,51,11.40
2007,03,06,19,52,11.40
2007,03,06,19,53,11.40
2007,03,06,19,54,11.40
2007,03,06,19,55,11.40
2007,03,06,19,56,11.40
2007,03,06,19,57,11.40
2007,03,06,19,58,11.40
2007,03,06,19,59,11.40
2007,03,06,20,00,11.40
2007,03,06,20,01,11.40
2007,03,06,20,02,11.40
2007,03,06,20,03,11.40
2007,03,06,20,04,11.40
2007,03,06,20,05,11.40
2007,03,06,20,06,11.40
2007,03,06,20,07,11.40
2007,03,06,20,08,11.40
2007,03,06,20,09,11.40
2007,03,06,20,10,11.40
2007,03,06,20,11,11.30
2007,03,06,20,12,11.30
2007,03,06,20,13,11.20
2007,03,06,20,14,11.10
2007,03,06,20,15,11.10
2007,03,06,20,16,11.10
2007,03,06,20,17,11.10
2007,03,06,20,18,11.10